TOURFACTS.DK  
Stats and Facts from Tour de France.

Tour de France 2018 starts in 254 days
  Riders   Stages   Teams   Summits   Yearly  


 
Search by year

 2017 - St. 21:  14824 starters.
  5131 different riders.
  634 teams.
  2232 stages.
  454 restdays.
  439589.60 km.
  5653 abandonnees.


Top 3
Christopher Froome86:20:55
Rigoberto Uran86:21:49
Romain Bardet86:23:15
Warren Barguil169 pt.
Primoz Roglic80 pt.
Thomas De Gendt64 pt.
Michael Matthews359 pt.
André Greipel234 pt.
Edvald Boasson Hagen220 pt.
Simon Yates86:27:09
Louis Meintjes86:29:15
Emanuel Buchmann86:54:16
Facts from Tour de France 2014
  |   Stages.  |   Stage winners.  |   Days in yellow  |   Average speed.  |   Route.  |   Teams.  |   All riders.  |   Rookies.  |   Withdrawls.  |  

  |   GC.  |   Polka  |   Green  |   White  |   Summits. (In tour)  |   Summits. (Points)  |   Miscellaneous.  |  

Stage 6 on 10 - 07 - 2014
         Owning:    Vincenzo Nibali      Cyril Lemoine      Peter Sagan      Peter Sagan  

Pick a stage:  1 2 3 4 5 6 7 8 9 10 11 12 13 14 15 16 17 18 19 20 21
  ArrasReims | Dist: 194.00 km.
Cat: 4Côte de Coucy-le-Château-AuffriqueESPLuis Angel Mate
1 point
 
Cat: 4Côte de RoucyESPLuis Angel Mate
1 point
 

Average speed for all riders in stage:  45,921 km./hr.
    Place:Name:Team:Time:Km/h:
GERAndré GreipelBELLotto-Belisol Team04:11:39  +  00:00:00=46,255 
NORAlexander KristoffRUSTeam Katusha04:11:39  +  00:00:00=46,255 
FRASamuel DumoulinFRAAg2r La Mondiale04:11:39  +  00:00:00=46,255 
4 AUSMark RenshawBELOmega Pharma – Quick Step04:11:39  +  00:00:00=46,255 
5 SVKPeter SaganITACannondale Pro Cycling04:11:39  +  00:00:00=46,255 
6 FRARomain FeilluFRABretagne - Séché Environnement04:11:39  +  00:00:00=46,255 
7 NEDTom VeelersNLDTeam Giant - Shimano04:11:39  +  00:00:00=46,255 
8 FRABryan CoquardFRATeam Europcar04:11:39  +  00:00:00=46,255 
9 BELSep VanmarckeNLDBelkin Pro Cycling04:11:39  +  00:00:00=46,255 
10 FRASylvain ChavanelCHEIAM Cycling04:11:39  +  00:00:00=46,255 
11 ITADaniel OssUSABMC Racing Team04:11:39  +  00:00:00=46,255 
12 FRACyril LemoineFRACofidis – Solutions Crédits04:11:39  +  00:00:00=46,255 
13 BELGreg Van AvermaetUSABMC Racing Team04:11:39  +  00:00:00=46,255 
14 SUIFabian CancellaraUSATrek Factory Racing04:11:39  +  00:00:00=46,255 
15 SUIJakob FuglsangKAZAstana Pro Team04:11:39  +  00:00:00=46,255 
16 NEDTom DumoulinNLDTeam Giant - Shimano04:11:39  +  00:00:00=46,255 
17 USAAndrew TalanskyUSAGarmin Sharp04:11:39  +  00:00:00=46,255 
18 ITAVincenzo NibaliKAZAstana Pro Team04:11:39  +  00:00:00=46,255 
19 NZLJack BauerUSAGarmin Sharp04:11:39  +  00:00:00=46,255 
20 ESPAlberto ContadorRUSTinkoff Saxo04:11:39  +  00:00:00=46,255 
21 FRAJean-Christophe PeraudFRAAg2r La Mondiale04:11:39  +  00:00:00=46,255 
22 PORRui CostaITALampre-Merida04:11:39  +  00:00:00=46,255 
23 FRAKévin RezaFRATeam Europcar04:11:39  +  00:00:00=46,255 
24 NEDBauke MollemaNLDBelkin Pro Cycling04:11:39  +  00:00:00=46,255 
25 AUSMathew HaymanAUSOrica - GreenEDGE04:11:39  +  00:00:00=46,255 
26 USATejay Van GarderenUSABMC Racing Team04:11:39  +  00:00:00=46,255 
27 SVKPeter VelitsUSABMC Racing Team04:11:39  +  00:00:00=46,255 
28 BELJürgen RoelandtsBELLotto-Belisol Team04:11:39  +  00:00:00=46,255 
29 CZELeopold KönigDEUTeam NetApp – Endura04:11:39  +  00:00:00=46,255 
30 ESPJosé Joaquin RojasESPMovistar Team04:11:39  +  00:00:00=46,255 
31 FRATony GallopinBELLotto-Belisol Team04:11:39  +  00:00:00=46,255 
32 URSGatis SmukulisRUSTeam Katusha04:11:39  +  00:00:00=46,255 
33 SUIGregory RastUSATrek Factory Racing04:11:39  +  00:00:00=46,255 
34 AUSMichael RogersRUSTinkoff Saxo04:11:39  +  00:00:00=46,255 
35 GERPaul VossDEUTeam NetApp – Endura04:11:39  +  00:00:00=46,255 
36 DENMichael MørkøvRUSTinkoff Saxo04:11:39  +  00:00:00=46,255 
37 NEDLaurens ten DamNLDBelkin Pro Cycling04:11:39  +  00:00:00=46,255 
38 POLMichal KwiatkowskiBELOmega Pharma – Quick Step04:11:39  +  00:00:00=46,255 
39 LUXFränk SchleckUSATrek Factory Racing04:11:39  +  00:00:00=46,255 
40 JPNChristopher HornerITALampre-Merida04:11:39  +  00:00:00=46,255 
41 SUIMichael SchärUSABMC Racing Team04:11:39  +  00:00:00=46,255 
42 SUIMathias FrankCHEIAM Cycling04:11:39  +  00:00:00=46,255 
43 AUSHeinrich HausslerCHEIAM Cycling04:11:39  +  00:00:00=46,255 
44 AUSRichie PorteGBRSky Procycling04:11:39  +  00:00:00=46,255 
45 ESPHaimar ZubeldiaUSATrek Factory Racing04:11:39  +  00:00:00=46,255 
46 PORTiago PintoDEUTeam NetApp – Endura04:11:39  +  00:00:00=46,255 
47 BELMaarten WynantsNLDBelkin Pro Cycling04:11:39  +  00:00:00=46,255 
48 RUSYury TrofimovRUSTeam Katusha04:11:39  +  00:00:00=46,255 
49 FRAJean-Marc MarinoITACannondale Pro Cycling04:11:39  +  00:00:00=46,255 
50 ESPAlejandro ValverdeESPMovistar Team04:11:39  +  00:00:00=46,255 
51 AUSZakkari DempsterDEUTeam NetApp – Endura04:11:39  +  00:00:00=46,255 
52 BELJurgen Van Den BroeckBELLotto-Belisol Team04:11:39  +  00:00:00=46,255 
53 FRABrice FeilluFRABretagne - Séché Environnement04:11:39  +  00:00:00=46,255 
54 FRARomain BardetFRAAg2r La Mondiale04:11:39  +  00:00:00=46,255 
55 ITAAlessandro VanottiKAZAstana Pro Team04:11:39  +  00:00:00=46,255 
56 WALGeraint ThomasGBRSky Procycling04:11:39  +  00:00:00=46,255 
57 NEDKoen De KortNLDTeam Giant - Shimano04:11:39  +  00:00:00=46,255 
58 UKRAndriy GrivkoKAZAstana Pro Team04:11:39  +  00:00:00=46,255 
59 BELJan BakelantsBELOmega Pharma – Quick Step04:11:39  +  00:00:00=46,255 
60 NEDNiki TerpstraBELOmega Pharma – Quick Step04:11:39  +  00:00:00=46,255 
61 SUIMichael AlbasiniAUSOrica - GreenEDGE04:11:39  +  00:00:00=46,255 
62 ITAElia VivianiITACannondale Pro Cycling04:11:39  +  00:00:00=46,255 
63 FRASébastien MinardFRAAg2r La Mondiale04:11:39  +  00:00:00=46,255 
64 DENLars BakBELLotto-Belisol Team04:11:39  +  00:00:00=46,255 
65 RUSAlexander PorsevRUSTeam Katusha04:11:39  +  00:00:00=46,255 
66 FRAFlorian VachonFRABretagne - Séché Environnement04:11:39  +  00:00:00=46,255 
67 BLRVasil KiryienkaGBRSky Procycling04:11:39  +  00:00:00=46,255 
68 SLOKristjan KorenITACannondale Pro Cycling04:11:39  +  00:00:00=46,255 
69 ITAMichele ScarponiKAZAstana Pro Team04:11:39  +  00:00:00=46,255 
70 NEDDanny van PoppelUSATrek Factory Racing04:11:39  +  00:00:00=46,255 
71 GERMarcel SiebergBELLotto-Belisol Team04:11:54  +  00:00:15=46,209 
72 AUTBernhard EiselGBRSky Procycling04:11:54  +  00:00:15=46,209 
73 URSRamunas NavardauskasUSAGarmin Sharp04:11:54  +  00:00:15=46,209 
74 POLMaciej BodnarITACannondale Pro Cycling04:11:57  +  00:00:18=46,200 
75 ITAMatteo TrentinBELOmega Pharma – Quick Step04:12:03  +  00:00:24=46,181 
76 BELJohan VansummerenUSAGarmin Sharp04:12:14  +  00:00:35=46,148 
77 ITAFabio SabatiniITACannondale Pro Cycling04:12:14  +  00:00:35=46,148 
78 NEDSebastian LangeveldUSAGarmin Sharp04:12:20  +  00:00:41=46,129 
79 ITAMarco MarcatoITACannondale Pro Cycling04:12:24  +  00:00:45=46,117 
80 AUSAdam HansenBELLotto-Belisol Team04:12:24  +  00:00:45=46,117 
81 FRAYohann GèneFRATeam Europcar04:12:26  +  00:00:47=46,111 
82 NEDRoy CurversNLDTeam Giant - Shimano04:12:26  +  00:00:47=46,111 
83 ITADaniele BennatiRUSTinkoff Saxo04:12:26  +  00:00:47=46,111 
84 KAZDmitriy GruzdevKAZAstana Pro Team04:12:33  +  00:00:54=46,090 
85 GERMarcel KittelNLDTeam Giant - Shimano04:12:33  +  00:00:54=46,090 
86 JPNYukiya ArashiroFRATeam Europcar04:12:33  +  00:00:54=46,090 
87 FRAThibaut PinotFRAFDJ.fr04:12:38  +  00:00:59=46,075 
88 ESPMikel NieveGBRSky Procycling04:12:38  +  00:00:59=46,075 
89 FRAPierre RollandFRATeam Europcar04:12:38  +  00:00:59=46,075 
90 NEDStef ClementNLDBelkin Pro Cycling04:12:38  +  00:00:59=46,075 
91 FRAJulien SimonFRACofidis – Solutions Crédits04:12:38  +  00:00:59=46,075 
92 NEDSteven KruijswijkNLDBelkin Pro Cycling04:12:38  +  00:00:59=46,075 
93 FRAFlorian GuillouFRABretagne - Séché Environnement04:12:38  +  00:00:59=46,075 
94 BELJens KeukeleireAUSOrica - GreenEDGE04:12:38  +  00:00:59=46,075 
95 GERJens VoigtUSATrek Factory Racing04:12:38  +  00:00:59=46,075 
96 PORNelson OliveiraITALampre-Merida04:12:38  +  00:00:59=46,075 
97 USAPeter StetinaUSABMC Racing Team04:12:38  +  00:00:59=46,075 
98 COLDarwin AtapumaUSABMC Racing Team04:12:38  +  00:00:59=46,075 
99 SUIMartin ElmigerCHEIAM Cycling04:12:38  +  00:00:59=46,075 
100 POLMichal GolasBELOmega Pharma – Quick Step04:12:38  +  00:00:59=46,075 
101 NEDBram TankinkNLDBelkin Pro Cycling04:12:38  +  00:00:59=46,075 
102 URSTanel KangertKAZAstana Pro Team04:12:38  +  00:00:59=46,075 
103 ENGSimon YatesAUSOrica - GreenEDGE04:12:38  +  00:00:59=46,075 
104 USABenjamin KingUSAGarmin Sharp04:12:38  +  00:00:59=46,075 
105 SUISébastien ReichenbachCHEIAM Cycling04:12:38  +  00:00:59=46,075 
106 NEDTom-Jelte SlagterUSAGarmin Sharp04:12:38  +  00:00:59=46,075 
107 FRACyril GautierFRATeam Europcar04:12:38  +  00:00:59=46,075 
108 GERTony MartinBELOmega Pharma – Quick Step04:12:38  +  00:00:59=46,075 
109 FRAAnthony DelaplaceFRABretagne - Séché Environnement04:12:38  +  00:00:59=46,075 
110 AUSSimon GerransAUSOrica - GreenEDGE04:12:38  +  00:00:59=46,075 
111 CANSvein TuftAUSOrica - GreenEDGE04:12:38  +  00:00:59=46,075 
112 ESPMarkel IrizarUSATrek Factory Racing04:12:38  +  00:00:59=46,075 
113 USAAlex HowesUSAGarmin Sharp04:12:38  +  00:00:59=46,075 
114 AUSLuke DurbridgeAUSOrica - GreenEDGE04:12:38  +  00:00:59=46,075 
115 FRABenoît JarrierFRABretagne - Séché Environnement04:12:38  +  00:00:59=46,075 
116 FRAJean-Marc BideauFRABretagne - Séché Environnement04:12:38  +  00:00:59=46,075 
117 FRAAmaël MoinardUSABMC Racing Team04:12:38  +  00:00:59=46,075 
118 LUXBen GastauerFRAAg2r La Mondiale04:12:38  +  00:00:59=46,075 
119 POLBartosz HuzarskiDEUTeam NetApp – Endura04:12:38  +  00:00:59=46,075 
120 SUIReto HollensteinCHEIAM Cycling04:12:38  +  00:00:59=46,075 
121 ITAMatteo MontagutiFRAAg2r La Mondiale04:12:38  +  00:00:59=46,075 
122 HRVKristijan DurasekITALampre-Merida04:12:38  +  00:00:59=46,075 
123 FRAArthur VichotFRAFDJ.fr04:12:38  +  00:00:59=46,075 
124 AUSSimon ClarkeAUSOrica - GreenEDGE04:12:38  +  00:00:59=46,075 
125 ITAAlessandro PetacchiBELOmega Pharma – Quick Step04:12:38  +  00:00:59=46,075 
126 PORJosé João PimentaDEUTeam NetApp – Endura04:13:06  +  00:01:27=45,990 
127 FRANicolas RocheRUSTinkoff Saxo04:13:06  +  00:01:27=45,990 
128 FRAJohn GadretESPMovistar Team04:13:06  +  00:01:27=45,990 
129 ITAMatteo TosattoRUSTinkoff Saxo04:13:06  +  00:01:27=45,990 
130 POLRafal MajkaRUSTinkoff Saxo04:13:06  +  00:01:27=45,990 
131 GERAndreas SchillingerDEUTeam NetApp – Endura04:13:15  +  00:01:36=45,962 
132 NEDAlbert TimmerNLDTeam Giant - Shimano04:13:32  +  00:01:53=45,911 
133 FRACédric PineauFRAFDJ.fr04:14:08  +  00:02:29=45,803 
134 ITALuca PaoliniRUSTeam Katusha04:14:19  +  00:02:40=45,770 
135 GERRoger KlugeCHEIAM Cycling04:14:34  +  00:02:55=45,725 
136 USADanny PateGBRSky Procycling04:14:40  +  00:03:01=45,707 
137 ITADavide CimolaiITALampre-Merida04:15:04  +  00:03:25=45,635 
138 FRAMatthieu LadagnousFRAFDJ.fr04:15:52  +  00:04:13=45,492 
139 FRAMickael DelageFRAFDJ.fr04:15:52  +  00:04:13=45,492 
140 ESPJesus HerradaESPMovistar Team04:15:52  +  00:04:13=45,492 
141 COLJanier AcevedoUSAGarmin Sharp04:15:52  +  00:04:13=45,492 
142 SLOSimon SpilakRUSTeam Katusha04:15:52  +  00:04:13=45,492 
143 FRABlel KadriFRAAg2r La Mondiale04:15:52  +  00:04:13=45,492 
144 ESPLuis Angel MateFRACofidis – Solutions Crédits04:15:52  +  00:04:13=45,492 
145 FRAJérémy RoyFRAFDJ.fr04:16:30  +  00:04:51=45,380 
146 FRAArnaud DémareFRAFDJ.fr04:16:30  +  00:04:51=45,380 
147 PORSergio PaulinhoRUSTinkoff Saxo04:16:30  +  00:04:51=45,380 
148 FRAArnold JeannessonFRAFDJ.fr04:16:30  +  00:04:51=45,380 
149 CANChristian MeierAUSOrica - GreenEDGE04:16:30  +  00:04:51=45,380 
150 CZEJan BártaDEUTeam NetApp – Endura04:16:30  +  00:04:51=45,380 
151 ESPRubén PlazaESPMovistar Team04:16:30  +  00:04:51=45,380 
152 ITAGiovanni ViscontiESPMovistar Team04:16:30  +  00:04:51=45,380 
153 ESPRafael Valls FerriITALampre-Merida04:16:30  +  00:04:51=45,380 
154 KAZMaxim IglinskiyKAZAstana Pro Team04:16:30  +  00:04:51=45,380 
155 ESPJoaquim RodriguezRUSTeam Katusha04:16:30  +  00:04:51=45,380 
156 RUSVladimir IsaichevRUSTeam Katusha04:16:30  +  00:04:51=45,380 
157 FRANicolas EdetFRACofidis – Solutions Crédits04:16:30  +  00:04:51=45,380 
158 NEDLieuwe WestraKAZAstana Pro Team04:16:30  +  00:04:51=45,380 
159 USAEdward KingITACannondale Pro Cycling04:16:30  +  00:04:51=45,380 
160 USAMatthew BuscheUSATrek Factory Racing04:16:30  +  00:04:51=45,380 
161 NEDTom LeezerNLDBelkin Pro Cycling04:16:30  +  00:04:51=45,380 
162 NEDLars BoomNLDBelkin Pro Cycling04:16:30  +  00:04:51=45,380 
163 ESPDaniel NavarroFRACofidis – Solutions Crédits04:16:30  +  00:04:51=45,380 
164 FRAMickaël CherelFRAAg2r La Mondiale04:16:30  +  00:04:51=45,380 
165 FRAThomas VoecklerFRATeam Europcar04:16:30  +  00:04:51=45,380 
166 FRAPerrig QuemeneurFRATeam Europcar04:16:30  +  00:04:51=45,380 
167 FRAArmindo FonsecaFRABretagne - Séché Environnement04:16:30  +  00:04:51=45,380 
168 FRAArnaud GérardFRABretagne - Séché Environnement04:16:30  +  00:04:51=45,380 
169 FRAAlexandre PichotFRATeam Europcar04:16:30  +  00:04:51=45,380 
170 FRARudy MolardFRACofidis – Solutions Crédits04:16:30  +  00:04:51=45,380 
171 FRAAdrien PetitFRACofidis – Solutions Crédits04:16:30  +  00:04:51=45,380 
172 ESPDavid de la CruzDEUTeam NetApp – Endura04:16:30  +  00:04:51=45,380 
173 ESPDavid LopezGBRSky Procycling04:16:30  +  00:04:51=45,380 
174 ESPImanol ErvitiESPMovistar Team04:16:30  +  00:04:51=45,380 
175 ESPBeñat IntxaustiESPMovistar Team04:16:30  +  00:04:51=45,380 
176 COLJosé SerpaITALampre-Merida04:16:30  +  00:04:51=45,380 
177 ESPJon Izaguirre InsaustiESPMovistar Team04:16:30  +  00:04:51=45,380 
178 SUIMarcel WyssCHEIAM Cycling04:16:30  +  00:04:51=45,380 
179 GERJohn DegenkolbNLDTeam Giant - Shimano04:16:30  +  00:04:51=45,380 
180 FRAWilliam BonnetFRAFDJ.fr04:16:30  +  00:04:51=45,380 
181 BELDries DevenynsNLDTeam Giant - Shimano04:16:30  +  00:04:51=45,380 
182 FRAJérôme PineauCHEIAM Cycling04:16:30  +  00:04:51=45,380 
183 ITAAlessandro De MarchiITACannondale Pro Cycling04:16:30  +  00:04:51=45,380 
184 GERMarcus BurghardtUSABMC Racing Team04:17:59  +  00:06:20=45,119 
185 CHNCheng JiNLDTeam Giant - Shimano04:18:39  +  00:07:00=45,003 
186 BELBart De ClercqBELLotto-Belisol Team04:18:41  +  00:07:02=44,997 
187 URSRein TaaramäeFRACofidis – Solutions Crédits04:19:45  +  00:08:06=44,812 
188 FRAChristophe RiblonFRAAg2r La Mondiale04:21:02  +  00:09:23=44,592 
189 ESPEgoitz GarciaFRACofidis – Solutions Crédits04:27:28  +  00:15:49=43,519 

Withdrawls: 4
 
Rider
Team
Reason
9  ESPXabier ZandioGBRSky ProcyclingDid not finish
26  RUSEgor SilinRUSTeam KatushaDid not finish
33  ESPJesus  HernandezRUSTinkoff SaxoDid not finish
117  BRAMaximilano RichezeITALampre-MeridaDid not start

Todays birthdays.

1886  Jean Meziere
1887  Pierre Herbette
1887  Octave Lapize
1898  Felix Manthey
1920  René Biever
1920  Georges Ramoulux
1928  René Marigil
1940  Jean-Pierre Genet
1944  Giannino Bianco
1945  Eddy Cael
1950  Bert Pronk
1954  Marc Dierickx
1961  Chris Carmichael
1973  Levi Leipheimer